Time,TemperatureF,DewpointF,PressureIn,WindDirection,WindDirectionDegrees,WindSpeedMPH,WindSpeedGustMPH,Humidity,HourlyPrecipIn,Conditions,Clouds,dailyrainin,SoftwareType,DateUTC
2013-09-06 00:12:00,71.8,61.0,30.11,East,92,0.0,-999.0,68,-99.99,,,0.00,weatherlink.com 1.10,2013-09-06 05:12:00,
2013-09-06 00:27:00,71.6,60.0,30.11,East,90,4.0,-999.0,68,-99.99,,,0.00,weatherlink.com 1.10,2013-09-06 05:27:00,
2013-09-06 00:42:00,71.5,61.0,30.11,East,88,2.0,-999.0,69,-99.99,,,0.00,weatherlink.com 1.10,2013-09-06 05:42:00,
2013-09-06 00:57:00,71.2,61.0,30.11,ENE,78,3.0,-999.0,70,-99.99,,,0.00,weatherlink.com 1.10,2013-09-06 05:57:00,
2013-09-06 01:12:00,71.0,61.0,30.11,East,84,4.0,-999.0,70,-99.99,,,0.00,weatherlink.com 1.10,2013-09-06 06:12:00,
2013-09-06 01:27:00,69.8,60.0,30.10,East,90,4.0,-999.0,71,-99.99,,,0.00,weatherlink.com 1.10,2013-09-06 06:27:00,
2013-09-06 01:42:00,69.5,60.0,30.10,East,91,0.0,-999.0,71,-99.99,,,0.00,weatherlink.com 1.10,2013-09-06 06:42:00,
2013-09-06 01:57:00,69.3,60.0,30.10,East,90,4.0,-999.0,72,-99.99,,,0.00,weatherlink.com 1.10,2013-09-06 06:57:00,
2013-09-06 02:12:00,68.9,60.0,30.09,East,84,1.0,-999.0,72,-99.99,,,0.00,weatherlink.com 1.10,2013-09-06 07:12:00,
2013-09-06 02:27:00,69.3,60.0,30.09,East,84,6.0,-999.0,72,-99.99,,,0.00,weatherlink.com 1.10,2013-09-06 07:27:00,
2013-09-06 02:42:00,69.4,60.0,30.09,East,88,6.0,-999.0,72,-99.99,,,0.00,weatherlink.com 1.10,2013-09-06 07:42:00,
2013-09-06 02:57:00,69.1,60.0,30.08,East,89,0.0,-999.0,72,-99.99,,,0.00,weatherlink.com 1.10,2013-09-06 07:57:00,
2013-09-06 03:12:00,69.4,60.0,30.08,East,83,1.0,-999.0,72,-99.99,,,0.00,weatherlink.com 1.10,2013-09-06 08:12:00,
2013-09-06 03:27:00,69.2,60.0,30.08,ESE,107,9.0,-999.0,72,-99.99,,,0.00,weatherlink.com 1.10,2013-09-06 08:27:00,
2013-09-06 03:42:00,68.7,60.0,30.08,East,99,0.0,-999.0,73,-99.99,,,0.00,weatherlink.com 1.10,2013-09-06 08:42:00,
2013-09-06 03:57:00,68.2,59.0,30.08,ESE,106,0.0,-999.0,73,-99.99,,,0.00,weatherlink.com 1.10,2013-09-06 08:57:00,
2013-09-06 04:12:00,69.1,60.0,30.07,ESE,106,2.0,-999.0,72,-99.99,,,0.00,weatherlink.com 1.10,2013-09-06 09:12:00,
2013-09-06 04:27:00,69.4,60.0,30.07,SE,126,0.0,-999.0,71,-99.99,,,0.00,weatherlink.com 1.10,2013-09-06 09:27:00,
2013-09-06 04:42:00,69.3,60.0,30.07,SE,136,0.0,-999.0,71,-99.99,,,0.00,weatherlink.com 1.10,2013-09-06 09:42:00,
2013-09-06 04:57:00,69.1,60.0,30.07,ESE,109,0.0,-999.0,72,-99.99,,,0.00,weatherlink.com 1.10,2013-09-06 09:57:00,
2013-09-06 05:12:00,68.8,60.0,30.07,ESE,103,0.0,-999.0,73,-99.99,,,0.00,weatherlink.com 1.10,2013-09-06 10:12:00,
2013-09-06 05:27:00,68.6,60.0,30.08,ESE,105,0.0,-999.0,74,-99.99,,,0.00,weatherlink.com 1.10,2013-09-06 10:27:00,
2013-09-06 05:42:00,68.5,60.0,30.07,ESE,104,4.0,-999.0,74,-99.99,,,0.00,weatherlink.com 1.10,2013-09-06 10:42:00,
2013-09-06 05:57:00,68.5,60.0,30.08,East,99,0.0,-999.0,74,-99.99,,,0.00,weatherlink.com 1.10,2013-09-06 10:57:00,
2013-09-06 06:12:00,68.3,60.0,30.08,East,101,0.0,-999.0,74,-99.99,,,0.00,weatherlink.com 1.10,2013-09-06 11:12:00,
2013-09-06 06:27:00,67.9,59.0,30.09,East,101,0.0,-999.0,74,-99.99,,,0.00,weatherlink.com 1.10,2013-09-06 11:27:00,
2013-09-06 06:42:00,68.0,59.0,30.08,East,101,0.0,-999.0,74,-99.99,,,0.00,weatherlink.com 1.10,2013-09-06 11:42:00,
2013-09-06 06:57:00,68.0,59.0,30.09,ESE,102,0.0,-999.0,74,-99.99,,,0.00,weatherlink.com 1.10,2013-09-06 11:57:00,
2013-09-06 07:12:00,68.3,60.0,30.09,ESE,103,0.0,-999.0,74,-99.99,,,0.00,weatherlink.com 1.10,2013-09-06 12:12:00,
2013-09-06 07:27:00,69.3,61.0,30.09,ESE,103,0.0,-999.0,74,-99.99,,,0.00,weatherlink.com 1.10,2013-09-06 12:27:00,
2013-09-06 07:42:00,70.3,62.0,30.10,ESE,104,0.0,-999.0,74,-99.99,,,0.00,weatherlink.com 1.10,2013-09-06 12:42:00,
2013-09-06 07:57:00,71.8,63.0,30.10,ESE,104,0.0,-999.0,73,-99.99,,,0.00,weatherlink.com 1.10,2013-09-06 12:57:00,
2013-09-06 08:12:00,73.0,63.0,30.10,ESE,104,0.0,-999.0,72,-99.99,,,0.00,weatherlink.com 1.10,2013-09-06 13:12:00,
2013-09-06 08:27:00,72.5,63.0,30.10,ESE,104,0.0,-999.0,73,-99.99,,,0.00,weatherlink.com 1.10,2013-09-06 13:27:00,
2013-09-06 08:42:00,70.2,61.0,30.10,ESE,104,0.0,-999.0,73,-99.99,,,0.00,weatherlink.com 1.10,2013-09-06 13:42:00,
2013-09-06 08:57:00,69.7,61.0,30.11,ESE,104,0.0,-999.0,74,-99.99,,,0.00,weatherlink.com 1.10,2013-09-06 13:57:00,
2013-09-06 09:12:00,70.4,62.0,30.11,ESE,104,0.0,-999.0,74,-99.99,,,0.00,weatherlink.com 1.10,2013-09-06 14:12:00,
2013-09-06 09:27:00,71.8,63.0,30.11,ESE,104,0.0,-999.0,73,-99.99,,,0.00,weatherlink.com 1.10,2013-09-06 14:27:00,
2013-09-06 09:42:00,71.9,63.0,30.12,East,98,0.0,-999.0,73,-99.99,,,0.00,weatherlink.com 1.10,2013-09-06 14:42:00,
2013-09-06 09:57:00,72.4,63.0,30.12,East,98,0.0,-999.0,73,-99.99,,,0.00,weatherlink.com 1.10,2013-09-06 14:57:00,
2013-09-06 10:12:00,73.8,64.0,30.12,East,98,0.0,-999.0,72,-99.99,,,0.00,weatherlink.com 1.10,2013-09-06 15:12:00,
2013-09-06 10:27:00,73.9,64.0,30.13,East,98,0.0,-999.0,71,-99.99,,,0.00,weatherlink.com 1.10,2013-09-06 15:27:00,
2013-09-06 10:42:00,74.6,65.0,30.13,East,94,0.0,-999.0,71,-99.99,,,0.00,weatherlink.com 1.10,2013-09-06 15:42:00,
2013-09-06 10:57:00,75.7,65.0,30.13,East,94,0.0,-999.0,69,-99.99,,,0.00,weatherlink.com 1.10,2013-09-06 15:57:00,
2013-09-06 11:12:00,76.1,65.0,30.13,East,92,0.0,-999.0,69,-99.99,,,0.00,weatherlink.com 1.10,2013-09-06 16:12:00,
2013-09-06 11:27:00,75.8,65.0,30.12,East,90,0.0,-999.0,69,-99.99,,,0.00,weatherlink.com 1.10,2013-09-06 16:27:00,
2013-09-06 11:42:00,77.1,66.0,30.12,East,89,0.0,-999.0,68,-99.99,,,0.00,weatherlink.com 1.10,2013-09-06 16:42:00,
2013-09-06 11:57:00,77.8,63.0,30.11,East,86,1.0,-999.0,61,-99.99,,,0.00,weatherlink.com 1.10,2013-09-06 16:57:00,
2013-09-06 12:12:00,77.8,62.0,30.11,East,84,0.0,-999.0,59,-99.99,,,0.00,weatherlink.com 1.10,2013-09-06 17:12:00,
2013-09-06 12:27:00,78.6,62.0,30.11,East,83,0.0,-999.0,58,-99.99,,,0.00,weatherlink.com 1.10,2013-09-06 17:27:00,
2013-09-06 12:42:00,79.4,64.0,30.11,East,83,0.0,-999.0,59,-99.99,,,0.00,weatherlink.com 1.10,2013-09-06 17:42:00,
2013-09-06 12:57:00,80.5,64.0,30.10,East,83,0.0,-999.0,58,-99.99,,,0.00,weatherlink.com 1.10,2013-09-06 17:57:00,
2013-09-06 13:12:00,80.5,58.0,30.10,East,82,0.0,-999.0,47,-99.99,,,0.00,weatherlink.com 1.10,2013-09-06 18:12:00,
2013-09-06 13:27:00,81.5,60.0,30.09,East,82,5.0,-999.0,49,-99.99,,,0.00,weatherlink.com 1.10,2013-09-06 18:27:00,
2013-09-06 13:42:00,80.8,60.0,30.09,East,82,0.0,-999.0,50,-99.99,,,0.00,weatherlink.com 1.10,2013-09-06 18:42:00,
2013-09-06 13:57:00,80.9,62.0,30.07,East,84,0.0,-999.0,52,-99.99,,,0.00,weatherlink.com 1.10,2013-09-06 18:57:00,
2013-09-06 14:12:00,81.9,63.0,30.07,East,84,3.0,-999.0,53,-99.99,,,0.00,weatherlink.com 1.10,2013-09-06 19:12:00,
2013-09-06 14:27:00,81.7,61.0,30.06,ENE,57,0.0,-999.0,49,-99.99,,,0.00,weatherlink.com 1.10,2013-09-06 19:27:00,
2013-09-06 14:42:00,82.1,62.0,30.06,ENE,57,0.0,-999.0,51,-99.99,,,0.00,weatherlink.com 1.10,2013-09-06 19:42:00,
2013-09-06 14:57:00,82.0,59.0,30.05,East,82,0.0,-999.0,45,-99.99,,,0.00,weatherlink.com 1.10,2013-09-06 19:57:00,
2013-09-06 15:12:00,82.0,59.0,30.05,East,82,0.0,-999.0,45,-99.99,,,0.00,weatherlink.com 1.10,2013-09-06 20:12:00,
2013-09-06 15:27:00,82.3,59.0,30.04,East,86,2.0,-999.0,45,-99.99,,,0.00,weatherlink.com 1.10,2013-09-06 20:27:00,
2013-09-06 15:42:00,82.3,56.0,30.04,East,86,0.0,-999.0,40,-99.99,,,0.00,weatherlink.com 1.10,2013-09-06 20:42:00,
2013-09-06 15:57:00,83.1,57.0,30.03,East,86,0.0,-999.0,41,-99.99,,,0.00,weatherlink.com 1.10,2013-09-06 20:57:00,
2013-09-06 16:12:00,83.4,57.0,30.02,East,86,6.0,-999.0,41,-99.99,,,0.00,weatherlink.com 1.10,2013-09-06 21:12:00,
2013-09-06 16:27:00,82.8,55.0,30.03,East,85,0.0,-999.0,39,-99.99,,,0.00,weatherlink.com 1.10,2013-09-06 21:27:00,
2013-09-06 16:42:00,83.1,56.0,30.02,East,85,0.0,-999.0,39,-99.99,,,0.00,weatherlink.com 1.10,2013-09-06 21:42:00,
2013-09-06 16:57:00,82.7,55.0,30.02,East,85,0.0,-999.0,39,-99.99,,,0.00,weatherlink.com 1.10,2013-09-06 21:57:00,
2013-09-06 17:12:00,82.7,55.0,30.02,East,85,0.0,-999.0,38,-99.99,,,0.00,weatherlink.com 1.10,2013-09-06 22:12:00,
2013-09-06 17:27:00,83.2,54.0,30.01,East,85,0.0,-999.0,36,-99.99,,,0.00,weatherlink.com 1.10,2013-09-06 22:27:00,
2013-09-06 17:42:00,82.5,54.0,30.02,East,85,0.0,-999.0,38,-99.99,,,0.00,weatherlink.com 1.10,2013-09-06 22:42:00,
2013-09-06 17:57:00,83.0,54.0,30.01,East,85,0.0,-999.0,37,-99.99,,,0.00,weatherlink.com 1.10,2013-09-06 22:57:00,
2013-09-06 18:12:00,83.0,52.0,30.01,East,85,0.0,-999.0,34,-99.99,,,0.00,weatherlink.com 1.10,2013-09-06 23:12:00,
2013-09-06 18:27:00,82.4,51.0,30.01,East,85,0.0,-999.0,34,-99.99,,,0.00,weatherlink.com 1.10,2013-09-06 23:27:00,
2013-09-06 18:42:00,81.5,51.0,30.01,East,85,0.0,-999.0,35,-99.99,,,0.00,weatherlink.com 1.10,2013-09-06 23:42:00,
2013-09-06 18:57:00,80.6,53.0,30.01,East,85,0.0,-999.0,39,-99.99,,,0.00,weatherlink.com 1.10,2013-09-06 23:57:00,
2013-09-06 19:12:00,79.9,54.0,30.01,East,85,0.0,-999.0,41,-99.99,,,0.00,weatherlink.com 1.10,2013-09-07 00:12:00,
2013-09-06 19:27:00,79.3,53.0,30.00,East,85,0.0,-999.0,40,-99.99,,,0.00,weatherlink.com 1.10,2013-09-07 00:27:00,
2013-09-06 19:42:00,79.0,55.0,30.00,East,85,0.0,-999.0,43,-99.99,,,0.00,weatherlink.com 1.10,2013-09-07 00:42:00,
2013-09-06 19:57:00,78.3,56.0,30.00,East,85,0.0,-999.0,46,-99.99,,,0.00,weatherlink.com 1.10,2013-09-07 00:57:00,
2013-09-06 20:12:00,77.7,55.0,30.01,East,85,0.0,-999.0,46,-99.99,,,0.00,weatherlink.com 1.10,2013-09-07 01:12:00,
2013-09-06 20:27:00,77.6,55.0,30.01,East,86,0.0,-999.0,45,-99.99,,,0.00,weatherlink.com 1.10,2013-09-07 01:27:00,
2013-09-06 20:42:00,77.9,54.0,30.01,East,86,0.0,-999.0,44,-99.99,,,0.00,weatherlink.com 1.10,2013-09-07 01:42:00,
2013-09-06 20:57:00,78.9,58.0,30.01,East,91,0.0,-999.0,49,-99.99,,,0.00,weatherlink.com 1.10,2013-09-07 01:57:00,
2013-09-06 21:12:00,78.4,63.0,30.01,ESE,115,0.0,-999.0,59,-99.99,,,0.00,weatherlink.com 1.10,2013-09-07 02:12:00,
2013-09-06 21:27:00,77.7,64.0,30.01,SSE,168,0.0,-999.0,62,-99.99,,,0.00,weatherlink.com 1.10,2013-09-07 02:27:00,
2013-09-06 21:42:00,77.4,64.0,30.01,ESE,122,0.0,-999.0,63,-99.99,,,0.00,weatherlink.com 1.10,2013-09-07 02:42:00,
2013-09-06 21:57:00,76.6,63.0,30.01,SE,138,0.0,-999.0,64,-99.99,,,0.00,weatherlink.com 1.10,2013-09-07 02:57:00,
2013-09-06 22:12:00,76.3,63.0,30.00,SE,134,0.0,-999.0,64,-99.99,,,0.00,weatherlink.com 1.10,2013-09-07 03:12:00,
2013-09-06 22:27:00,75.9,64.0,30.01,ESE,112,0.0,-999.0,66,-99.99,,,0.00,weatherlink.com 1.10,2013-09-07 03:27:00,
2013-09-06 22:42:00,75.8,64.0,30.01,ESE,113,0.0,-999.0,67,-99.99,,,0.00,weatherlink.com 1.10,2013-09-07 03:42:00,
2013-09-06 22:57:00,75.7,64.0,30.00,ESE,117,0.0,-999.0,67,-99.99,,,0.00,weatherlink.com 1.10,2013-09-07 03:57:00,
2013-09-06 23:12:00,75.7,64.0,30.00,East,101,5.0,-999.0,68,-99.99,,,0.00,weatherlink.com 1.10,2013-09-07 04:12:00,
2013-09-06 23:27:00,75.5,65.0,30.01,ESE,109,0.0,-999.0,69,-99.99,,,0.00,weatherlink.com 1.10,2013-09-07 04:27:00,
2013-09-06 23:42:00,75.3,65.0,30.01,SE,145,0.0,-999.0,70,-99.99,,,0.00,weatherlink.com 1.10,2013-09-07 04:42:00,
2013-09-06 23:57:00,75.0,65.0,30.01,SE,124,0.0,-999.0,71,-99.99,,,0.00,weatherlink.com 1.10,2013-09-07 04:57:00,